Regional Weather Roundup
Issued by NWS

Home | Current Version | Previous Version | Graphics & Text | Print | Product List | Glossary On
Versions: 1 2 3 4 5 6 7 8 9 10 11 12 13 14 15 16 17 18 19 20 21 22 23 24 25 26 27 28 29 30 31 32 33 34 35 36 37 38 39 40 41 42 43 44 45 46 47 48 49 50
000
ASUS43 KLOT 311158
RWRIL

ILLINOIS REGIONAL WEATHER ROUNDUP
NATIONAL WEATHER SERVICE CHICAGO/ROMEOVILLE IL
700 AM CDT THU JUL 31 2014

NOTE: "FAIR" INDICATES FEW OR NO CLOUDS BELOW 12,000 FEET WITH NO
SIGNIFICANT WEATHER AND/OR OBSTRUCTIONS TO VISIBILITY.

* THESE STATIONS ARE NOT UNDER NWS QUALITY CONTROL. THEY ALSO MAY NOT
  REPORT WEATHER SUCH AS PRECIPITATION OR FOG.

ILZ001-002-007-009-015-016-024-311300-
NORTHWEST ILLINOIS

CITY           SKY/WX    TMP DP  RH WIND       PRES   REMARKS
MOLINE         SUNNY     60  57  89 SW3       30.06R
6HR MIN TEMP:  58; 6HR MAX TEMP:  63;

$$

ILZ003-004-008-010-011-017-018-311300-
NORTH CENTRAL ILLINOIS

CITY           SKY/WX    TMP DP  RH WIND       PRES   REMARKS
ROCKFORD       NOT AVBL
$$

ILZ005-006-012>014-019>023-311300-
NORTHEAST ILLINOIS

CITY           SKY/WX    TMP DP  RH WIND       PRES   REMARKS
CHICAGO-OHARE  PTSUNNY   64  55  72 NW5       30.02S
6HR MIN TEMP:  59; 6HR MAX TEMP:  64;

CHICAGO-MIDWAY MOSUNNY   65  60  84 SW5       30.03S
6HR MIN TEMP:  63; 6HR MAX TEMP:  66;

AURORA         SUNNY     57  54  89 CALM      30.04F FOG
6HR MIN TEMP:  53; 6HR MAX TEMP:  57;

WAUKEGAN       CLOUDY    63  56  78 VRB3      30.01S
6HR MIN TEMP:  58; 6HR MAX TEMP:  63;

DUPAGE AIRPORT SUNNY     59  55  87 CALM      30.03S
6HR MIN TEMP:  57; 6HR MAX TEMP:  61;

WHEELING       CLOUDY    63  59  87 S3        30.04S
6HR MIN TEMP:  60; 6HR MAX TEMP:  63; 6HR PCP:  0.03;

NORTHERLY ISL    N/A     66  57  72 W8          N/A
$$

LMZ740>746-311300-
SOUTHERN LAKE MICHIGAN

STATION/POSITION SKY/WX   TEMP    WIND        PRES    VSBY  WAVE
                          AIR SEA DIR/SP/G                  HT/PER
                          (F)     (DEG/KT/KT) (MB)    (MI)  (FT/S)
SOUTHERN BUOY              62 60  230/ 12/ 14 1015.6R         1/ 3
WAUKEGAN HARBOR            64     260/  9/ 12   N/A
HARRISON CRIB              67     260/ 11/ 12   N/A
BURNHAM HARBOR             65     260/  8/ 10   N/A
CALUMET HARBOR             62     220/  3/  7 1015.8R
MICHIGAN CITY              64     190/  7/ 10   N/A
MICHIGAN CITY 6N           65 69  210/ 10/ 12   N/A           1/ 2
ST. JOSEPH                 67 69  190/ 12/ 14   N/A           2/ 2
$$

ILZ025>027-034>036-040-047-049-050-058-095>099-311300-
WEST-CENTRAL ILLINOIS

CITY           SKY/WX    TMP DP  RH WIND       PRES   REMARKS
$$

ILZ028>032-037-038-041>044-048-051>054-059>061-311300-
CENTRAL ILLINOIS

CITY           SKY/WX    TMP DP  RH WIND       PRES   REMARKS
PEORIA         NOT AVBL
SPRINGFIELD    SUNNY     60  57  89 SW3       30.08S
6HR MIN TEMP:  57; 6HR MAX TEMP:  63;

TAYLORVILLE    NOT AVBL
$$

ILZ033-039-045-046-055>057-062-063-311300-
EAST-CENTRAL ILLINOIS

CITY           SKY/WX    TMP DP  RH WIND       PRES   REMARKS
CHAMPAIGN      SUNNY     60  58  92 NW3       30.08S
MATTOON        SUNNY     64  58  80 W6        30.08S
$$

ILZ079-100>102-311300-
SOUTHWEST ILLINOIS

CITY           SKY/WX    TMP DP  RH WIND       PRES   REMARKS
ALTON          MOSUNNY   57  57 100 CALM      30.09S
CAHOKIA*       CLEAR     60  59  96 CALM      30.09R
$$

ILZ064>066-069>071-074>076-080>082-084>086-088>090-092>094-311300-
SOUTH-CENTRAL ILLINOIS

CITY           SKY/WX    TMP DP  RH WIND       PRES   REMARKS
CARBONDALE     FOG       60  58  92 CALM      30.09R VSB 1
6HR MIN TEMP:  57; 6HR MAX TEMP:  62;

MARION         SUNNY     61  61 100 SE6       30.10R
$$

ILZ067-068-072-073-078-083-087-091-311300-
SOUTHEAST ILLINOIS

CITY           SKY/WX    TMP DP  RH WIND       PRES   REMARKS
LAWRENCEVILLE  SUNNY     61  60  97 CALM      30.09S FOG
$$

ABBREVIATIONS USED IN REMARKS
   TC - TEMPERATURE IN CELSIUS
  WCI - WIND CHILL INDEX
   HX - HEAT INDEX
  VSB - VISIBILITY
$$




USA.gov is the U.S. government's official web portal to all federal, state and local government web resources and services.